User: anonymous   Login
Location: Waning Moon II Observatory
(30.3730°N, 89.7620°W)
Time: 15:29:20
(UTC-05:00)
Language:

Meteor 1-21 - Orbit

View from above orbital plane
View from above orbital plane
View from above satellite
View from above satellite

Ground track
Ground track

The orbit data is extracted from the following two-line orbital elements,

1 07714U 75023A   16206.39996017  .00000042  00000-0  16836-4 0  9999
2 07714  81.2137 150.8337 0032328  96.0267 264.4588 14.07947253439069
Epoch (UTC): 24 July 2016 09:35:56
Eccentricity: 0.0032328
inclination: 81.2137°
perigee height: 843 km
apogee height: 890 km
right ascension of ascending node: 150.8337°
argument of perigee: 96.0267°
revolutions per day: 14.07947253
mean anomaly at epoch: 264.4588°
orbit number at epoch: 43906

The dashed part of the orbit path shows where the satellite is in the earth's shadow,  

DLR